Novato, CA

7:43 AM PST on November 12, 2019 (GMT -0800)
Gnoss

Weather History for KDVO - September, 2019

Change the Weather History Date:

Thursday, September 5, 2019

  Actual Average (KAPC) Record (KAPC)
Temperature  
Mean Temperature 64 °F -  
Max Temperature 77 °F 85 °F 99 °F (2008)
Min Temperature 51 °F 54 °F 44 °F (2010)
Degree Days  
Heating Degree Days 1    
Growing Degree Days 14 (Base 50)    
Moisture  
Dew Point 56 °F    
Average Humidity 77    
Maximum Humidity 100    
Minimum Humidity 47    
Precipitation  
Precipitation 0.00 in - - ()
Sea Level Pressure  
Sea Level Pressure 29.96 in    
Wind  
Wind Speed 4 mph ()    
Max Wind Speed 20 mph    
Max Gust Speed 23 mph    
Visibility 9.5 miles    
Events      
Averages and records for this station are not official NWS values.
T = Trace of Precipitation, MM = Missing Value Source: Averaged Metar Reports

Daily Weather History Graph

Daily Weather History Graph

Search for Another Location

Airport or City:

Astronomy

Sep. 05, 2019 Rise Set
Actual Time 6:43 AM PDT 7:33 PM PDT
Civil Twilight 6:16 AM PDT 8:00 PM PDT
Nautical Twilight 5:44 AM PDT 8:32 PM PDT
Astronomical Twilight 5:11 AM PDT 9:05 PM PDT
Moon 1:49 PM PDT (9/5) No Moon Set
Length of Visible Light 13h 44m
Length of Day
12h 50m
Waxing Crescent, 46% of the Moon is Illuminated
Sep 5
Waxing Crescent
Sep 5
First Quarter
Sep 13
Full
Sep 21
Last Quarter
Sep 28
New

Hourly Weather History & Observations

Time (PDT) Temp. Dew Point Humidity Pressure Visibility Wind Dir Wind Speed Gust Speed Precip Events Conditions
12:15 AM 55.4 °F 51.8 °F 88% 29.90 in 10.0 mi NNW 4.6 mph - N/A   Clear
12:35 AM 55.4 °F 53.6 °F 94% 29.91 in 10.0 mi Calm Calm - N/A   Clear
12:55 AM 55.4 °F 55.4 °F 100% 29.91 in 10.0 mi Calm Calm - N/A   Clear
1:15 AM 55.4 °F 55.4 °F 100% 29.91 in 10.0 mi Calm Calm - N/A   Clear
1:35 AM 55.4 °F 55.4 °F 100% 29.91 in 10.0 mi WSW 3.5 mph - N/A   Clear
1:55 AM 57.2 °F 55.4 °F 94% 29.91 in 10.0 mi Calm Calm - N/A   Clear
2:15 AM 53.6 °F 51.8 °F 94% 29.91 in 10.0 mi Calm Calm - N/A   Partly Cloudy
2:35 AM 55.4 °F 53.6 °F 94% 29.91 in 10.0 mi Calm Calm - N/A   Clear
2:55 AM 51.8 °F 51.8 °F 100% 29.91 in 0.8 mi Calm Calm - N/A   Mist
3:15 AM 51.8 °F 51.8 °F 100% 29.91 in 6.0 mi Calm Calm - N/A   Clear
3:35 AM 55.4 °F 53.6 °F 94% 29.91 in 10.0 mi Calm Calm - N/A   Clear
3:55 AM 53.6 °F 51.8 °F 94% 29.91 in 10.0 mi Calm Calm - N/A   Partly Cloudy
4:15 AM 53.6 °F 51.8 °F 94% 29.91 in 2.5 mi Calm Calm - N/A   Clear
4:35 AM 55.4 °F 55.4 °F 100% 29.92 in 10.0 mi Calm Calm - N/A   Partly Cloudy
4:55 AM 55.4 °F 53.6 °F 94% 29.92 in 10.0 mi Calm Calm - N/A   Mostly Cloudy
5:15 AM 55.4 °F 55.4 °F 100% 29.93 in 10.0 mi Calm Calm - N/A   Overcast
5:35 AM 55.4 °F 53.6 °F 94% 29.93 in 9.0 mi Calm Calm - N/A   Overcast
5:55 AM 57.2 °F 55.4 °F 94% 29.93 in 10.0 mi Calm Calm - N/A   Overcast
6:15 AM 57.2 °F 55.4 °F 94% 29.93 in 10.0 mi Calm Calm - N/A   Overcast
6:35 AM 55.4 °F 53.6 °F 94% 29.94 in 10.0 mi NNE 4.6 mph - N/A   Overcast
7:15 AM 57.2 °F 55.4 °F 94% 29.96 in 10.0 mi ESE 5.8 mph - N/A   Mostly Cloudy
7:35 AM 57.2 °F 55.4 °F 94% 29.97 in 10.0 mi North 4.6 mph - N/A   Overcast
7:55 AM 59.0 °F 55.4 °F 88% 29.98 in 10.0 mi Calm Calm - N/A   Overcast
8:35 AM 60.8 °F 57.2 °F 88% 29.98 in 10.0 mi NNW 4.6 mph - N/A   Overcast
8:55 AM 60.8 °F 55.4 °F 82% 29.99 in 10.0 mi Calm Calm - N/A   Overcast
9:35 AM 64.4 °F 57.2 °F 77% 29.99 in 10.0 mi NNE 4.6 mph - N/A   Overcast
9:55 AM 64.4 °F 57.2 °F 77% 30.00 in 10.0 mi Calm Calm - N/A   Overcast
10:15 AM 66.2 °F 57.2 °F 73% 30.00 in 10.0 mi SSW 9.2 mph 15.0 mph N/A   Scattered Clouds
10:35 AM 66.2 °F 57.2 °F 73% 30.00 in 10.0 mi SW 8.1 mph 15.0 mph N/A   Clear
10:55 AM 68.0 °F 57.2 °F 68% 30.00 in 10.0 mi SSW 11.5 mph 19.6 mph N/A   Clear
11:15 AM 68.0 °F 57.2 °F 68% 30.01 in 10.0 mi SW 15.0 mph - N/A   Clear
11:35 AM 69.8 °F 57.2 °F 64% 30.00 in 10.0 mi SW 16.1 mph - N/A   Clear
11:55 AM 69.8 °F 57.2 °F 64% 30.01 in 10.0 mi SSW 13.8 mph 19.6 mph N/A   Clear
12:15 PM 71.6 °F 59.0 °F 64% 30.00 in 10.0 mi SW 15.0 mph - N/A   Clear
12:35 PM 71.6 °F 59.0 °F 64% 30.00 in 10.0 mi SW 17.3 mph 23.0 mph N/A   Clear
12:55 PM 73.4 °F 59.0 °F 61% 30.00 in 10.0 mi SW 16.1 mph - N/A   Clear
1:15 PM 73.4 °F 57.2 °F 57% 30.00 in 10.0 mi SW 16.1 mph 23.0 mph N/A   Clear
1:35 PM 75.2 °F 57.2 °F 53% 30.00 in 10.0 mi SW 18.4 mph - N/A   Clear
1:55 PM 75.2 °F 57.2 °F 53% 30.00 in 10.0 mi SW 17.3 mph - N/A   Clear
2:15 PM 77.0 °F 57.2 °F 50% 29.99 in 10.0 mi SW 16.1 mph - N/A   Clear
2:35 PM 77.0 °F 57.2 °F 50% 29.99 in 10.0 mi SW 16.1 mph 23.0 mph N/A   Clear
2:55 PM 77.0 °F 57.2 °F 50% 29.98 in 10.0 mi SW 18.4 mph - N/A   Clear
3:15 PM 77.0 °F 57.2 °F 50% 29.97 in 10.0 mi SW 17.3 mph - N/A   Clear
3:35 PM 77.0 °F 57.2 °F 50% 29.97 in 10.0 mi SW 19.6 mph - N/A   Clear
3:55 PM 77.0 °F 57.2 °F 50% 29.97 in 10.0 mi SW 15.0 mph 21.9 mph N/A   Clear
4:15 PM 77.0 °F 55.4 °F 47% 29.97 in 10.0 mi SW 11.5 mph - N/A   Clear
4:35 PM 77.0 °F 55.4 °F 47% 29.97 in 10.0 mi SW 10.4 mph 18.4 mph N/A   Clear
4:55 PM 77.0 °F 55.4 °F 47% 29.97 in 10.0 mi West 10.4 mph 18.4 mph N/A   Clear